| time (UTC) | temp F | wind direction | speed knots | gust knots | rain 1hr in | rain 24hr in | rain mn in | humidity % | barometer mb |
| 20260504002515 | 71 | 158 | 1.7 | 6.1 | 0.00 | 0.00 | 0.00 | 26 | 1004.7 |
| 20260504001516 | 71 | 135 | 3.5 | 4.3 | 0.00 | 0.00 | 0.00 | 26 | 1004.8 |
| 20260504000516 | 71 | 135 | 4.3 | 7.8 | 0.00 | 0.00 | 0.00 | 26 | 1005.0 |
| 20260503235516 | 71 | 135 | 3.5 | 7.8 | 0.00 | 0.00 | 0.00 | 25 | 1005.0 |
| 20260503234616 | 71 | 135 | 3.5 | 9.6 | 0.00 | 0.00 | 0.00 | 25 | 1005.2 |
| 20260503233516 | 72 | 135 | 4.3 | 11.3 | 0.00 | 0.00 | 0.00 | 25 | 1005.2 |
| 20260503232516 | 72 | 135 | 4.3 | 7.8 | 0.00 | 0.00 | 0.00 | 26 | 1005.3 |
| 20260503231516 | 72 | 135 | 4.3 | 8.7 | 0.00 | 0.00 | 0.00 | 26 | 1005.4 |
| 20260503230516 | 72 | 135 | 4.3 | 9.6 | 0.00 | 0.00 | 0.00 | 26 | 1005.4 |
| 20260503225536 | 72 | 135 | 5.2 | 11.3 | 0.00 | 0.00 | 0.00 | 26 | 1005.3 |
| 20260503224516 | 72 | 135 | 5.2 | 10.4 | 0.00 | 0.00 | 0.00 | 26 | 1005.5 |
| 20260503223515 | 73 | 135 | 6.1 | 10.4 | 0.00 | 0.00 | 0.00 | 26 | 1005.7 |
| 20260503222515 | 73 | 135 | 5.2 | 9.6 | 0.00 | 0.00 | 0.00 | 26 | 1005.8 |
| 20260503221535 | 74 | 135 | 5.2 | 8.7 | 0.00 | 0.00 | 0.00 | 26 | 1005.7 |
| 20260503220536 | 74 | 135 | 5.2 | 12.2 | 0.00 | 0.00 | 0.00 | 26 | 1005.8 |
| 20260503215516 | 74 | 135 | 7.0 | 11.3 | 0.00 | 0.00 | 0.00 | 27 | 1006.0 |
| 20260503214516 | 74 | 135 | 6.1 | 10.4 | 0.00 | 0.00 | 0.00 | 27 | 1005.9 |
| 20260503213517 | 74 | 135 | 5.2 | 10.4 | 0.00 | 0.00 | 0.00 | 28 | 1006.1 |
| 20260503212558 | 75 | 135 | 4.3 | 7.8 | 0.00 | 0.00 | 0.00 | 26 | 1006.2 |
| 20260503211518 | 74 | 113 | 6.1 | 14.8 | 0.00 | 0.00 | 0.00 | 28 | 1006.2 |
| 20260503210517 | 75 | 158 | 5.2 | 11.3 | 0.00 | 0.00 | 0.00 | 27 | 1006.5 |
| 20260503205518 | 74 | 135 | 6.1 | 12.2 | 0.00 | 0.00 | 0.00 | 28 | 1006.5 |
| 20260503204518 | 74 | 135 | 4.3 | 8.7 | 0.00 | 0.00 | 0.00 | 27 | 1006.6 |
| 20260503203518 | 74 | 135 | 7.0 | 13.9 | 0.00 | 0.00 | 0.00 | 29 | 1007.0 |
| 20260503202518 | 74 | 135 | 7.8 | 14.8 | 0.00 | 0.00 | 0.00 | 27 | 1007.1 |
| 20260503201518 | 75 | 135 | 5.2 | 10.4 | 0.00 | 0.00 | 0.00 | 32 | 1007.2 |
| 20260503200538 | 74 | 135 | 5.2 | 11.3 | 0.00 | 0.00 | 0.00 | 29 | 1007.2 |
| 20260503195518 | 74 | 135 | 6.1 | 13.0 | 0.00 | 0.00 | 0.00 | 29 | 1007.4 |
| 20260503194518 | 74 | 135 | 6.1 | 10.4 | 0.00 | 0.00 | 0.00 | 28 | 1007.5 |
| 20260503193518 | 74 | 135 | 7.0 | 13.0 | 0.00 | 0.00 | 0.00 | 30 | 1007.7 |
| 20260503192518 | 73 | 135 | 7.0 | 11.3 | 0.00 | 0.00 | 0.00 | 30 | 1007.7 |
| 20260503191517 | 73 | 135 | 7.0 | 17.4 | 0.00 | 0.00 | 0.00 | 30 | 1007.8 |
| 20260503190516 | 72 | 135 | 7.8 | 13.0 | 0.00 | 0.00 | 0.00 | 31 | 1007.8 |
| 20260503185517 | 72 | 135 | 7.0 | 13.0 | 0.00 | 0.00 | 0.00 | 30 | 1007.9 |
| 20260503184537 | 72 | 135 | 7.0 | 10.4 | 0.00 | 0.00 | 0.00 | 30 | 1007.9 |
| 20260503183518 | 73 | 135 | 8.7 | 16.5 | 0.00 | 0.00 | 0.00 | 29 | 1008.1 |
| 20260503182518 | 73 | 158 | 7.0 | 16.5 | 0.00 | 0.00 | 0.00 | 29 | 1008.1 |
| 20260503181518 | 72 | 135 | 7.8 | 13.0 | 0.00 | 0.00 | 0.00 | 30 | 1008.2 |
| 20260503180518 | 72 | 158 | 8.7 | 16.5 | 0.00 | 0.00 | 0.00 | 30 | 1008.4 |
| 20260503175517 | 71 | 135 | 6.1 | 13.9 | 0.00 | 0.00 | 0.00 | 30 | 1008.5 |
| 20260503174517 | 71 | 158 | 8.7 | 16.5 | 0.00 | 0.00 | 0.00 | 31 | 1008.5 |
| 20260503173557 | 71 | 158 | 8.7 | 18.2 | 0.00 | 0.00 | 0.00 | 31 | 1008.4 |
| 20260503172517 | 71 | 158 | 7.8 | 13.9 | 0.00 | 0.00 | 0.00 | 31 | 1008.7 |
| 20260503171517 | 70 | 158 | 7.0 | 12.2 | 0.00 | 0.00 | 0.00 | 34 | 1008.5 |
| 20260503170638 | 70 | 158 | 7.8 | 15.6 | 0.00 | 0.00 | 0.00 | 34 | 1008.6 |
| 20260503150557 | 62 | 135 | 6.1 | 13.0 | 0.00 | 0.00 | 0.00 | 46 | 1008.1 |
| 20260503130517 | 54 | 135 | 5.2 | 9.6 | 0.00 | 0.00 | 0.00 | 59 | 1007.0 |
| 20260503110517 | 53 | 135 | 4.3 | 9.6 | 0.00 | 0.00 | 0.00 | 60 | 1005.4 |
| 20260503081517 | 57 | 90 | 7.0 | 10.4 | 0.00 | 0.00 | 0.00 | 44 | 1006.3 |
| 20260503080516 | 57 | 90 | 7.8 | 13.0 | 0.00 | 0.00 | 0.00 | 44 | 1006.3 |
| 20260503072516 | 58 | 90 | 6.1 | 12.2 | 0.00 | 0.00 | 0.00 | 43 | 1006.9 |
| 20260503071516 | 59 | 68 | 5.2 | 10.4 | 0.00 | 0.00 | 0.00 | 41 | 1007.0 |
| 20260503070516 | 59 | 90 | 6.1 | 14.8 | 0.00 | 0.00 | 0.00 | 40 | 1007.3 |
| 20260503054516 | 61 | 90 | 6.1 | 12.2 | 0.00 | 0.00 | 0.00 | 36 | 1009.5 |
| 20260503053516 | 61 | 90 | 7.0 | 9.6 | 0.00 | 0.00 | 0.00 | 35 | 1009.8 |
| 20260503052516 | 61 | 90 | 7.0 | 8.7 | 0.00 | 0.00 | 0.00 | 37 | 1009.6 |
| 20260503051516 | 61 | 90 | 6.1 | 8.7 | 0.00 | 0.00 | 0.00 | 39 | 1009.4 |
| 20260503050516 | 61 | 90 | 6.1 | 9.6 | 0.00 | 0.00 | 0.00 | 38 | 1009.6 |
| 20260503045537 | 62 | 90 | 7.0 | 11.3 | 0.00 | 0.00 | 0.00 | 37 | 1009.3 |
| 20260503044517 | 62 | 90 | 5.2 | 9.6 | 0.00 | 0.00 | 0.00 | 37 | 1009.2 |
| 20260503043537 | 61 | 90 | 8.7 | 13.0 | 0.00 | 0.00 | 0.00 | 36 | 1009.2 |
| 20260503042516 | 61 | 90 | 7.0 | 12.2 | 0.00 | 0.00 | 0.00 | 37 | 1009.1 |
| 20260503041516 | 60 | 90 | 4.3 | 9.6 | 0.00 | 0.00 | 0.00 | 41 | 1009.2 |
| 20260503040516 | 60 | 90 | 3.5 | 7.8 | 0.00 | 0.00 | 0.00 | 42 | 1009.6 |
| 20260503035516 | 60 | 68 | 2.6 | 7.8 | 0.00 | 0.00 | 0.00 | 42 | 1009.7 |
| 20260503034517 | 60 | 90 | 4.3 | 7.0 | 0.00 | 0.00 | 0.00 | 42 | 1010.0 |
| 20260503033517 | 60 | 90 | 2.6 | 6.1 | 0.00 | 0.00 | 0.00 | 41 | 1010.1 |
| 20260503032517 | 61 | 90 | 5.2 | 9.6 | 0.00 | 0.00 | 0.00 | 40 | 1010.2 |
| 20260503031557 | 61 | 90 | 5.2 | 9.6 | 0.00 | 0.00 | 0.00 | 40 | 1010.1 |
| 20260503030517 | 61 | 90 | 4.3 | 7.0 | 0.00 | 0.00 | 0.00 | 40 | 1010.0 |
| 20260503025517 | 61 | 90 | 5.2 | 8.7 | 0.00 | 0.00 | 0.00 | 39 | 1010.1 |
| 20260503024537 | 62 | 90 | 4.3 | 7.8 | 0.00 | 0.00 | 0.00 | 39 | 1010.4 |
| 20260503023517 | 62 | 90 | 4.3 | 8.7 | 0.00 | 0.00 | 0.00 | 39 | 1010.4 |
| 20260503022516 | 63 | 90 | 3.5 | 6.1 | 0.00 | 0.00 | 0.00 | 38 | 1010.4 |
| 20260503021517 | 63 | 90 | 2.6 | 6.1 | 0.00 | 0.00 | 0.00 | 38 | 1010.6 |
| 20260503020517 | 63 | 90 | 3.5 | 7.0 | 0.00 | 0.00 | 0.00 | 37 | 1010.7 |
| 20260503015516 | 64 | 90 | 3.5 | 6.1 | 0.00 | 0.00 | 0.00 | 36 | 1010.9 |
| 20260503014516 | 64 | 90 | 4.3 | 7.0 | 0.00 | 0.00 | 0.00 | 35 | 1010.8 |
| 20260503013516 | 65 | 90 | 4.3 | 7.0 | 0.00 | 0.00 | 0.00 | 35 | 1010.9 |
| 20260503012516 | 65 | 90 | 4.3 | 7.8 | 0.00 | 0.00 | 0.00 | 34 | 1011.0 |
| 20260503011516 | 65 | 90 | 3.5 | 6.1 | 0.00 | 0.00 | 0.00 | 33 | 1011.0 |
| 20260503010517 | 66 | 113 | 0.9 | 3.5 | 0.00 | 0.00 | 0.00 | 33 | 1011.0 |
| 20260503005516 | 66 | 90 | 2.6 | 5.2 | 0.00 | 0.00 | 0.00 | 33 | 1011.2 |
| 20260503004516 | 66 | 113 | 2.6 | 7.0 | 0.00 | 0.00 | 0.00 | 32 | 1011.2 |
| 20260503003516 | 66 | 113 | 2.6 | 6.1 | 0.00 | 0.00 | 0.00 | 30 | 1011.3 |